Station DUKN7 - 8651370 - Duck Pier, NC Image indicating link to RSS feed of recent meteorological observations for station DUKN7


Conditions at DUKN7 as of
(5:18 am EDT)
0918 GMT on 07/14/2024:
     

Click on the graph icon in the table below to see a time series plot of the last five days of that observation.

5-day plot - Wind Direction Wind Direction (WDIR):WNW ( 290 deg true )
5-day plot - Wind Speed Wind Speed (WSPD): 9.9 kts
5-day plot - Wind Gust Wind Gust (GST): 12.0 kts
5-day plot - Atmospheric Pressure Atmospheric Pressure (PRES):30.06 in
5-day plot - Air Temperature Air Temperature (ATMP): 79.7 °F
5-day plot - Wind Speed at 10 Meters Wind Speed at 10 meters (WSPD10M): 9.7 kts
5-day plot - Wind Speed at 20 Meters Wind Speed at 20 meters (WSPD20M): 11.7 kts
5-day plot -  Wind Speed, Wind Gust and Atmospheric Pressure Combined plot of Wind Speed, Gust, and Air Pressure
NOS Water Level Observation Network Water Level
Previous observations
TIME
(EDT)
5-day plot - Wind Direction
WDIR
 
5-day plot - Wind Speed
WSPD
kts
5-day plot - Wind Gust
GST
kts
5-day plot - Wave Height
WVHT
ft
5-day plot - Dominant Wave Period
DPD
sec
5-day plot - Average Wave Period
APD
sec
5-day plot - Mean Wave Direction
MWD
 
5-day plot - Atmospheric Pressure
PRES
in
5-day plot - Pressure Tendency
PTDY
in
5-day plot - Air Temperature
ATMP
°F
5-day plot - Water Temperature
WTMP
°F
5-day plot - Dew Point
DEWP
°F
5-day plot - Salinity
SAL
psu
5-day plot - Visibility
VIS
nmi
5-day plot - Tide (above MLLW)
TIDE
ft
2024-07-14 05:12 amWNW 11.1 13.0----30.06- 79.9-----
2024-07-14 05:06 am W 11.1 13.0----30.06- 80.1-----
2024-07-14 05:00 am W 9.9 12.0----30.06-0.03------
2024-07-14 04:54 am W 8.9 13.0----30.06-------
2024-07-14 04:48 am W 9.9 12.0----30.06-------
2024-07-14 04:42 am W 8.9 12.0----30.06-------
2024-07-14 04:36 am W 9.9 12.0----30.06-------
2024-07-14 04:30 am W 9.9 12.0----30.06- 80.6-----
2024-07-14 04:24 am W 9.9 13.0----30.06- 80.4-----
2024-07-14 04:18 am W 8.9 13.0----30.06-------
2024-07-14 04:12 am W 8.0 8.9----30.06-------
2024-07-14 04:06 amWSW 8.0 11.1----30.06-------
2024-07-14 04:00 amWSW 8.0 9.9----30.06-0.04 79.9-----
2024-07-14 03:54 amWSW 7.0 9.9----30.06- 79.9-----
2024-07-14 03:48 amWSW 8.9 12.0----30.07-------
2024-07-14 03:42 amWSW 9.9 12.0----30.07-------
2024-07-14 03:36 amWSW 8.9 11.1----30.07-------
2024-07-14 03:30 amWSW 8.0 9.9----30.07- 79.7-----
2024-07-14 03:24 amWSW 7.0 9.9----30.07- 79.7-----
2024-07-14 03:18 amWSW 8.0 11.1----30.08- 80.1-----
2024-07-14 03:12 am SW 8.9 11.1----30.08- 79.9-----
2024-07-14 03:06 am SW 8.0 9.9----30.08- 80.1-----
2024-07-14 03:00 am SW 8.9 11.1----30.08-0.04 80.1-----
2024-07-14 02:54 am SW 8.9 9.9----30.08- 79.9-----
2024-07-14 02:48 amWSW 8.9 9.9----30.08- 80.1-----
2024-07-14 02:42 amWSW 8.9 9.9----30.08- 80.1-----
2024-07-14 02:36 amWSW 8.0 11.1----30.08- 80.1-----
2024-07-14 02:30 amWSW 9.9 12.0----30.09- 80.2-----
2024-07-14 02:24 amWSW 8.0 9.9----30.09- 80.1-----
2024-07-14 02:18 amWSW 8.0 9.9----30.09-------
2024-07-14 02:12 amWSW 8.0 11.1----30.09-------
2024-07-14 02:06 amWSW 9.9 11.1----30.09-------
2024-07-14 02:00 amWSW 9.9 12.0----30.09-0.02 79.9-----
2024-07-14 01:54 amWSW 9.9 12.0----30.09- 80.1-----
2024-07-14 01:48 amWSW 9.9 12.0----30.09- 80.2-----
2024-07-14 01:42 am SW 9.9 12.0----30.09- 80.2-----
2024-07-14 01:36 am SW 9.9 11.1----30.10- 80.2-----
2024-07-14 01:30 am SW 9.9 12.0----30.10- 80.2-----
2024-07-14 01:24 am SW 8.9 11.1----30.10- 80.4-----
2024-07-14 01:18 amWSW 8.0 11.1----30.10-------
2024-07-14 01:12 amWSW 9.9 11.1----30.10-------
2024-07-14 01:06 amWSW 8.0 9.9----30.10-------
2024-07-14 01:00 amWSW 7.0 9.9----30.11-0.01------
2024-07-14 12:54 amWSW 7.0 9.9----30.11-------
2024-07-14 12:48 amWSW 8.0 8.9----30.11-------
2024-07-14 12:42 amWSW 7.0 8.9----30.11-------
2024-07-14 12:36 amWSW 7.0 9.9----30.11-------
2024-07-14 12:30 amWSW 7.0 8.0----30.11- 80.2-----
2024-07-14 12:24 am SW 5.1 6.0----30.11- 80.4-----
2024-07-14 12:18 am SW 5.1 8.0----30.11- 80.4-----
2024-07-14 12:12 amSSW 8.0 8.9----30.11- 80.4-----
2024-07-14 12:06 amSSW 8.0 8.9----30.11- 80.4-----
2024-07-14 12:00 am SW 7.0 8.9----30.11+0.00 80.6-----
2024-07-13 11:54 pmSSW 7.0 8.0----30.11- 80.4-----
2024-07-13 11:48 pmSSW 6.0 8.0----30.11- 80.4-----
2024-07-13 11:42 pm SW 8.0 12.0----30.12- 80.4-----
2024-07-13 11:36 pm SW 8.9 12.0----30.12- 80.8-----
2024-07-13 11:30 pm SW 8.9 12.0----30.12- 80.6-----
2024-07-13 11:24 pm SW 8.9 12.0----30.12- 80.6-----
2024-07-13 11:18 pmSSW 11.1 12.0----30.12- 80.8-----
2024-07-13 11:12 pmSSW 9.9 13.0----30.11- 80.6-----
2024-07-13 11:06 pmSSW 11.1 14.0----30.11- 80.6-----
2024-07-13 11:00 pmSSW 8.9 12.0----30.11+0.00 80.6-----
2024-07-13 10:54 pmSSW 11.1 13.0----30.11- 80.6-----
2024-07-13 10:48 pmSSW 9.9 13.0----30.11- 80.4-----
2024-07-13 10:42 pm S 8.9 13.0----30.11- 80.6-----
2024-07-13 10:36 pm S 12.0 14.0----30.11- 80.8-----
2024-07-13 10:30 pm S 9.9 14.0----30.11- 80.6-----
2024-07-13 10:24 pm S 11.1 13.0----30.12- 80.8-----
2024-07-13 10:18 pmSSW 9.9 13.0----30.12- 80.8-----
2024-07-13 10:12 pm S 9.9 13.0----30.11- 80.6-----
2024-07-13 10:06 pm S 8.9 11.1----30.12- 81.0-----
2024-07-13 10:00 pm S 8.9 14.0----30.12+0.00 80.8-----
2024-07-13 09:54 pm S 9.9 13.0----30.12- 81.0-----
2024-07-13 09:48 pm S 8.9 13.0----30.12-------
2024-07-13 09:42 pm S 11.1 12.0----30.12-------
2024-07-13 09:36 pm S 9.9 12.0----30.12-------
2024-07-13 09:30 pm S 12.0 13.0----30.12- 81.1-----
2024-07-13 09:24 pm S 8.9 11.1----30.12- 81.1-----
2024-07-13 09:18 pm S 8.0 11.1----30.12-------
2024-07-13 09:12 pm S 11.1 13.0----30.12-------
2024-07-13 09:06 pm S 8.9 11.1----30.12-------
2024-07-13 09:00 pmSSW 9.9 12.0----30.11+0.03 81.7-----
2024-07-13 08:54 pmSSW 8.0 9.9----30.11- 80.8-----
2024-07-13 08:48 pmSSW 8.0 9.9------------
2024-07-13 08:42 pm S 8.0 9.9------------
2024-07-13 08:36 pm S 7.0 9.9------------
2024-07-13 08:30 pm S 7.0 8.0----30.11- 79.9-----
2024-07-13 08:24 pm S 6.0 7.0----30.11- 80.1-----
2024-07-13 08:18 pm S 5.1 7.0----30.11- 80.1-----
2024-07-13 08:12 pm S 6.0 7.0----30.11- 80.2-----
2024-07-13 08:06 pm S 6.0 7.0----30.11- 80.4-----
2024-07-13 08:00 pm S 7.0 7.0----30.11+0.02 80.4-----
2024-07-13 07:54 pm S 5.1 8.0----30.11- 80.4-----
2024-07-13 07:48 pm S 6.0 8.0----30.12- 80.6-----
2024-07-13 07:42 pm S 7.0 8.9----30.12- 80.4-----
2024-07-13 07:36 pm S 7.0 11.1----30.12- 80.6-----
2024-07-13 07:30 pmSSW 8.9 11.1----30.12- 80.8-----
2024-07-13 07:24 pmSSW 8.9 12.0----30.12- 80.8-----
2024-07-13 07:18 pm S 7.0 11.1----30.11- 80.6-----
2024-07-13 07:12 pmSSW 8.9 11.1----30.12- 81.0-----
2024-07-13 07:00 pmSSW 9.9 12.0----30.11+0.00 81.0-----
2024-07-13 06:54 pmSSW 8.9 11.1----30.11- 81.0-----
2024-07-13 06:48 pmSSW 9.9 12.0----30.11- 81.0-----
2024-07-13 06:42 pmSSW 9.9 12.0----30.11- 81.1-----
2024-07-13 06:36 pmSSW 8.0 13.0----30.10- 81.0-----
2024-07-13 06:30 pmSSW 8.9 13.0----30.10-------
2024-07-13 06:24 pmSSW 11.1 12.0----30.09-------
2024-07-13 06:18 pmSSW 8.9 12.0----30.09- 81.1-----
2024-07-13 06:12 pm SW 8.0 14.0----30.09- 81.0-----
2024-07-13 06:06 pmSSW 8.9 13.0----30.09- 81.1-----
2024-07-13 06:00 pm S 8.0 12.0----30.09-0.06 81.3-----
2024-07-13 05:54 pmSSW 8.0 9.9----30.09- 81.3-----
2024-07-13 05:48 pmSSW 8.9 12.0----30.09- 81.5-----
2024-07-13 05:42 pmSSW 9.9 13.0----30.09- 81.5-----
2024-07-13 05:36 pm S 11.1 14.0----30.08- 81.1-----
2024-07-13 05:30 pmSSW 11.1 14.0----30.09-------
2024-07-13 05:24 pm S 11.1 15.0----30.09-------
2024-07-13 05:18 pmSSW 9.9 13.0----30.09- 81.0-----
2024-07-13 05:12 pmSSW 8.0 11.1----30.09- 80.6-----
2024-07-13 05:06 pmSSW 9.9 12.0----30.09- 80.2-----
2024-07-13 05:00 pmSSW 8.0 11.1----30.09-0.02 79.5-----
2024-07-13 04:54 pmSSW 8.9 11.1----30.10- 79.3-----
2024-07-13 04:48 pmSSW 7.0 9.9----30.10- 78.8-----
2024-07-13 04:42 pmSSW 7.0 8.9----30.11- 78.6-----
2024-07-13 04:36 pm SW 8.9 11.1----30.11- 78.6-----
2024-07-13 04:30 pm SW 8.0 11.1----30.11-------
2024-07-13 04:24 pm SW 8.0 11.1----30.11-------
2024-07-13 04:18 pm SW 7.0 8.9----30.11- 77.9-----
2024-07-13 04:12 pmSSW 8.0 11.1----30.11- 77.7-----
2024-07-13 04:06 pmSSW 9.9 12.0----30.11- 77.7-----
2024-07-13 04:00 pm SW 11.1 12.0----30.12-0.03------
2024-07-13 03:54 pm SW 8.0 11.1----30.13-------
2024-07-13 03:48 pm SW 8.9 12.0----30.13-------
2024-07-13 03:42 pmWSW 8.9 12.0----30.14-------
2024-07-13 03:36 pmWSW 8.0 14.0----30.14-------
2024-07-13 03:30 pmWSW 12.0 15.0----30.14- 77.2-----
2024-07-13 03:24 pmWSW 15.0 19.0----30.14- 77.0-----
2024-07-13 03:18 pmWSW 15.0 20.0----30.14- 76.8-----
2024-07-13 03:12 pmWSW 15.0 21.0----30.14- 76.8-----
2024-07-13 03:06 pmWSW 19.0 26.0----30.14- 77.0-----
2024-07-13 03:00 pmWSW 22.0 27.0----30.15-0.01------
2024-07-13 02:54 pm SW 15.0 21.0----30.14-------
2024-07-13 02:48 pmSSW 13.0 18.1----30.13- 79.9-----
2024-07-13 02:42 pmSSW 15.0 20.0----30.13- 79.3-----
2024-07-13 02:36 pm S 18.1 22.9----30.13- 79.7-----
2024-07-13 02:30 pm S 20.0 26.0----30.12- 79.9-----
2024-07-13 02:24 pm S 15.0 22.9----30.12-------
2024-07-13 02:18 pm S 15.0 20.0----30.12-------
2024-07-13 02:12 pm S 15.0 21.0----30.12-------
2024-07-13 02:06 pm S 15.9 19.0----30.11-------
2024-07-13 02:00 pm S 15.9 21.0----30.11-0.05------
2024-07-13 01:54 pm S 14.0 18.1----30.12-------
2024-07-13 01:48 pm S 15.9 18.1----30.13-------
2024-07-13 01:42 pm S 14.0 15.9----30.14-------
2024-07-13 01:36 pm S 9.9 15.9----30.14-------
2024-07-13 01:30 pmSSE 13.0 15.9----30.14- 68.7-----
2024-07-13 01:24 pmSSE 15.0 17.1----30.14- 71.6-----
2024-07-13 01:18 pmSSE 15.0 15.9----30.14- 69.6-----
2024-07-13 01:12 pmSSE 14.0 15.9----30.14- 67.8-----
2024-07-13 01:06 pmSSE 15.9 17.1----30.15- 67.8-----
2024-07-13 01:00 pm-------30.15-0.01------
2024-07-13 12:54 pm-------30.16-------
2024-07-13 12:48 pmSSE 12.0 13.0----30.15- 73.2-----
2024-07-13 12:42 pmSSE 13.0 14.0----30.16- 71.2-----
2024-07-13 12:36 pmSSE 13.0 14.0----30.15- 74.3-----
2024-07-13 12:30 pmSSE 14.0 15.0------ 74.5-----
2024-07-13 12:24 pmSSE 13.0 14.0------ 74.1-----
2024-07-13 12:18 pm S 12.0 13.0----30.16-------
2024-07-13 12:12 pm S 9.9 12.0----30.16-------
2024-07-13 12:06 pmSSE 11.1 13.0----30.16-------
2024-07-13 12:00 pm S 12.0 17.1----30.16+0.00 76.3-----
2024-07-13 11:54 am S 12.0 15.0----30.16- 77.0-----
2024-07-13 11:48 amSSW 13.0 19.0----30.17- 77.4-----
2024-07-13 11:42 amSSW 17.1 22.9----30.17- 76.8-----
2024-07-13 11:36 amSSW 20.0 27.0----30.17- 77.0-----
2024-07-13 11:30 amSSW 22.9 33.0----30.16- 78.3-----
2024-07-13 11:24 amSSW 12.0 15.0----30.16- 83.3-----
2024-07-13 11:18 amSSW 14.0 15.9----30.16- 83.3-----
2024-07-13 11:12 amSSW 12.0 15.9----30.16- 83.3-----
2024-07-13 11:06 amSSW 12.0 17.1----30.16- 83.1-----
2024-07-13 11:00 amSSW 12.0 15.0----30.16+0.00 83.3-----
2024-07-13 10:54 amSSW 8.9 11.1----30.16- 82.6-----
2024-07-13 10:48 amSSW 9.9 13.0----30.16- 82.6-----
2024-07-13 10:42 amSSW 8.0 11.1----30.16- 81.7-----
2024-07-13 10:36 am S 11.1 13.0----30.16- 82.0-----
2024-07-13 10:30 am S 9.9 13.0----30.16- 81.7-----
2024-07-13 10:24 amSSW 11.1 14.0----30.16- 81.5-----
2024-07-13 10:18 am S 12.0 14.0----30.16- 81.5-----
2024-07-13 10:12 amSSW 8.0 12.0----30.16- 81.3-----
2024-07-13 10:06 amSSW 13.0 14.0----30.16- 81.3-----
2024-07-13 10:00 amSSW 9.9 14.0----30.16+0.00 80.8-----
2024-07-13 09:54 amSSW 11.1 14.0----30.16- 81.0-----
2024-07-13 09:48 am S 12.0 14.0----30.16- 80.8-----
2024-07-13 09:42 amSSW 11.1 14.0----30.16- 80.1-----
2024-07-13 09:36 amSSW 11.1 13.0----30.16- 80.4-----
2024-07-13 09:30 amSSW 12.0 15.0----30.16- 80.4-----
2024-07-13 09:24 amSSW 13.0 15.0----30.16- 80.4-----
2024-07-13 09:18 amSSW 12.0 15.9----30.16- 80.2-----
2024-07-13 09:12 amSSW 11.1 14.0----30.17- 80.1-----
2024-07-13 09:06 amSSW 13.0 17.1----30.17- 80.2-----
2024-07-13 09:00 amSSW 13.0 15.9----30.17+0.02 80.4-----
2024-07-13 08:54 amSSW 9.9 14.0----30.17- 80.4-----
2024-07-13 08:48 amSSW 11.1 15.0----30.17- 80.1-----
2024-07-13 08:42 amSSW 11.1 15.0----30.17- 79.7-----
2024-07-13 08:36 amSSW 12.0 15.0----30.17- 79.7-----
2024-07-13 08:30 amSSW 11.1 15.0----30.17- 79.5-----
2024-07-13 08:24 amSSW 11.1 17.1----30.16- 79.3-----
2024-07-13 08:18 amSSW 14.0 18.1----30.16- 79.5-----
2024-07-13 08:12 amSSW 12.0 15.9----30.16- 79.5-----
2024-07-13 08:06 amSSW 13.0 17.1----30.16- 79.7-----
2024-07-13 08:00 amSSW 11.1 15.0----30.17+0.01 79.2-----
2024-07-13 07:54 amSSW 9.9 15.9----30.17- 79.0-----
2024-07-13 07:48 amSSW 12.0 17.1----30.17-------
2024-07-13 07:42 amSSW 13.0 20.0----30.17-------
2024-07-13 07:36 am S 15.9 19.0----30.16-------
2024-07-13 07:30 am S 14.0 18.1----30.16-------
2024-07-13 07:24 am S 12.0 15.0----30.16-------
2024-07-13 07:18 am S 12.0 15.0----30.16- 78.6-----
2024-07-13 07:12 am S 11.1 14.0----30.16- 78.8-----
2024-07-13 07:06 am S 13.0 15.0----30.16- 78.8-----
2024-07-13 07:00 am S 11.1 13.0----30.16- 76.6-----
2024-07-13 06:54 am S 8.9 12.0----30.16- 73.9-----
2024-07-13 06:48 am S 9.9 11.1----30.16- 71.6-----
2024-07-13 06:42 amSSE 8.9 12.0----30.16- 71.4-----
2024-07-13 06:36 amSSE 9.9 13.0----30.16- 69.8-----
2024-07-13 06:30 amSSE 8.9 9.9----30.16- 71.1-----
2024-07-13 06:24 amSSE 8.0 8.9----30.16- 71.8-----
2024-07-13 06:18 amSSE 8.9 11.1----30.16- 72.1-----
2024-07-13 06:12 amSSE 8.9 12.0----30.15- 71.1-----
2024-07-13 06:06 amSSE 9.9 11.1----30.15- 70.3-----
2024-07-13 06:00 amSSE 8.9 11.1----30.15+0.00------
2024-07-13 05:54 amSSE 9.9 11.1----30.15-------
2024-07-13 05:48 amSSE 11.1 12.0----30.15-------
2024-07-13 05:42 amSSE 11.1 12.0----30.16-------
2024-07-13 05:36 amSSE 11.1 12.0----30.16-------
2024-07-13 05:30 amSSE 12.0 12.0----30.16- 67.1-----
2024-07-13 05:24 amSSE 11.1 12.0----30.16- 66.7-----
2024-07-13 05:18 amSSE 11.1 12.0----30.16- 66.4-----
2024-07-13 05:12 amSSE 13.0 15.0----30.16- 66.4-----
2024-07-13 05:06 amSSE 14.0 15.0----30.16- 66.6-----
2024-07-13 05:00 amSSE 14.0 15.9----30.15-0.03 66.6-----
2024-07-13 04:54 amSSE 14.0 15.9----30.15- 66.7-----